Regional Weather Roundup
Issued by NWS

Home | Current Version | Previous Version | Graphics & Text | Print | Product List | Glossary On
Versions: 1 2 3 4 5 6 7 8 9 10 11 12 13 14 15 16 17 18 19 20 21 22 23 24 25 26 27 28 29 30 31 32 33 34 35 36 37 38 39 40 41 42 43 44 45 46 47 48 49 50
484
ASUS43 KOAX 230102
RWRNE

WEATHER ROUNDUP FOR NEBRASKA
NATIONAL WEATHER SERVICE OMAHA NE
800 PM CDT MON MAY 22 2017

NOTES: SATELLITE DATA IS BEING USED TO AUGMENT CLOUD COVER ABOVE
       12000 FEET.
       "FAIR" INDICATES FEW OR NO CLOUDS BELOW 12,000 FEET WITH NO
       SIGNIFICANT WEATHER AND/OR OBSTRUCTIONS TO VISIBILITY.

  * THESE STATIONS DO NOT REPORT WEATHER SUCH AS RAIN...SNOW OR FOG.

NEZ001>004-019>022-054>056-230200-
NEBRASKA PANHANDLE

CITY           SKY/WX    TMP DP  RH WIND       PRES   REMARKS
SCOTTSBLUFF    MOSUNNY   50  38  63 N17G24    30.13R
ALLIANCE       LGT RAIN  44  40  85 N18G31    30.11R
CHADRON        MOSUNNY   50  43  77 W3        30.12R
GORDON         MOCLDY    50  42  75 N12       30.09R
KIMBALL        CLOUDY    49  39  68 NW16G22   30.13S
SIDNEY         CLOUDY    49  39  68 NW14      30.11R
$$

NEZ057>060-069>072-079>082-230200-
SOUTHWEST NEBRASKA

CITY           SKY/WX    TMP DP  RH WIND       PRES   REMARKS
NORTH PLATTE   CLOUDY    56  42  59 N20G25    30.00R
IMPERIAL       CLOUDY    55  43  63 NW18      30.04R
LEXINGTON      LGT RAIN  61  44  54 NW17      29.97R
MCCOOK         LGT RAIN  58  45  62 NW17      29.99R
OGALLALA       CLOUDY    55  42  63 NW15      30.06R
$$

NEZ005>010-023>029-035>040-094-230200-
NORTH CENTRAL NEBRASKA

CITY           SKY/WX    TMP DP  RH WIND       PRES   REMARKS
VALENTINE      CLOUDY    57  40  52 N10       30.02R
AINSWORTH      MOCLDY    53  43  69 N12       30.01R
BROKEN BOW     CLOUDY    60  41  49 N22G29    29.96R
O`NEILL        MOCLDY    56  45  66 N18G24    29.96R
ORD            CLOUDY    60  43  53 N12       29.92R
$$

NEZ041-046>049-061>064-073>077-083>087-230200-
SOUTH CENTRAL NEBRASKA

CITY           SKY/WX    TMP DP  RH WIND       PRES   REMARKS
GRAND ISLAND   PTCLDY    61  43  51 N13       29.93R
AURORA         PTCLDY    64  45  51 N18       29.92R
HASTINGS       CLOUDY    65  48  54 N7        29.92R
HEBRON         CLOUDY    57  55  92 CALM      29.90S
HOLDREGE       PTCLDY    64  43  46 N9        29.93R
KEARNEY *      CLEAR     61  41  48 N17       29.94R
$$

NEZ011>018-030>034-042>045-230200-
NORTHEAST NEBRASKA

CITY           SKY/WX    TMP DP  RH WIND       PRES   REMARKS
NORFOLK        CLEAR     61  41  47 NW16G23   29.89R
ALBION         MOCLDY    61  42  49 NW14      29.91R
BLAIR          CLOUDY    67  50  54 CALM      29.88S
FREMONT        CLOUDY    65  46  49 NW8       29.89R
TEKAMAH        CLOUDY    65  47  52 NW9       29.87R
WAYNE          LGT RAIN  59  49  68 NW14      29.88S
$$

NEZ050>053-065>068-078-088>093-230200-
SOUTHEAST NEBRASKA

CITY           SKY/WX    TMP DP  RH WIND       PRES   REMARKS
LINCOLN        CLOUDY    61  55  81 S6        29.90S
OMAHA EPPLEY   CLOUDY    64  52  64 SW6       29.88R
BEATRICE       LGT RAIN  60  57  91 E6        29.89F
FALLS CITY     PTCLDY    61  54  77 W8        29.90R
NEBRASKA CITY  RAIN      62  54  77 W14       29.90R
$$

NEZ044-045-051>053-067-230200-
OMAHA AREA

CITY           SKY/WX    TMP DP  RH WIND       PRES   REMARKS
OMAHA EPPLEY   CLOUDY    64  52  64 SW6       29.88R
BLAIR          CLOUDY    67  50  54 CALM      29.88S
FREMONT        CLOUDY    65  46  49 NW8       29.89R
MILLARD        CLOUDY    63  58  84 SW3       29.88R
OFFUTT AFB     CLOUDY    61  54  77 W7        29.87R
WAHOO          MOCLDY    67  43  41 NW13      29.88R
$$




USA.gov is the U.S. government's official web portal to all federal, state and local government web resources and services.